Date String (YYYY-MM-DD hh:mm:ss) UTC,Instrument flags,Ambient pressure (hPa),Sample flow (lpm),Bypass flow (lpm),Sample temperature (°C),Ambient temperature (°C),ASC tube jacket temperature (°C),LED temperature (°C),Box temperature (°C),Sample RH (%),Span deviation,Mass concentration (μg/m³),Mass concentration (μg/m³),Mass concentration (μg/m³)
DateTimeUTC,F1_M11,P_M11,Q1_M11,Q2_M11,T1_M11,T2_M11,T3_M11,T4_M11,T5_M11,U1_M11,ZSPAN_M11,X0_M11,X2_M11,X1_M11
2021-12-21 19:00:00,,0823.4,5.00,0.00,24.3,23.5,00.0,33.3,26.0,06.6,0000.0,0001.79,0000.61,0000.27
2021-12-21 19:01:00,,0823.4,5.00,0.00,24.3,23.5,00.0,33.3,26.0,06.5,0000.0,0001.62,0000.57,0000.27
2021-12-21 19:02:00,,0823.3,5.01,0.00,24.3,23.5,00.0,33.3,26.0,06.5,0000.0,0001.46,0000.54,0000.27
2021-12-21 19:03:00,,0823.3,4.98,0.00,24.3,23.5,00.0,33.3,26.1,06.4,0000.0,0001.31,0000.53,0000.27
2021-12-21 19:04:00,,0823.2,5.00,0.00,24.3,23.5,00.0,33.3,26.1,06.3,0000.0,0001.30,0000.52,0000.27
2021-12-21 19:05:00,,0823.2,5.01,0.00,24.3,23.5,00.0,33.3,26.1,06.2,0000.0,0001.28,0000.50,0000.27
2021-12-21 19:06:00,,0823.1,5.00,0.00,24.3,23.5,00.0,33.3,26.1,06.2,0000.0,0001.18,0000.46,0000.27
2021-12-21 19:07:00,,0823.1,4.99,0.00,24.3,23.5,00.0,33.3,26.1,06.2,0000.0,0001.04,0000.44,0000.27
2021-12-21 19:08:00,,0823.1,5.01,0.00,24.4,23.6,00.0,33.3,26.1,06.2,0000.0,0000.83,0000.39,0000.26
2021-12-21 19:09:00,,0823.0,4.99,0.00,24.4,23.6,00.0,33.3,26.1,06.2,0000.0,0000.71,0000.34,0000.26
2021-12-21 19:10:00,,0823.0,5.01,0.00,24.4,23.6,00.0,33.3,26.1,06.2,0000.0,0000.73,0000.35,0000.27
2021-12-21 19:11:00,,0823.0,4.99,0.00,24.4,23.6,00.0,33.4,26.1,06.2,0000.0,0001.86,0000.37,0000.27
2021-12-21 19:12:00,,0822.9,5.00,0.00,24.4,23.6,00.0,33.4,26.1,06.2,0000.0,0002.05,0000.39,0000.26
2021-12-21 19:13:00,,0822.8,4.99,0.00,24.4,23.6,00.0,33.4,26.2,06.2,0000.0,0002.09,0000.40,0000.26
2021-12-21 19:14:00,,0823.0,5.02,0.00,24.4,23.7,00.0,33.4,26.2,06.1,0000.0,0002.13,0000.44,0000.27
2021-12-21 19:15:00,,0823.0,4.99,0.00,24.4,23.7,00.0,33.4,26.1,06.2,0000.0,0002.18,0000.46,0000.27
2021-12-21 19:16:00,,0823.0,5.00,0.00,24.4,23.6,00.0,33.4,26.2,06.2,0000.0,0002.22,0000.49,0000.28
2021-12-21 19:17:00,,0822.9,5.01,0.00,24.4,23.7,00.0,33.4,26.2,06.1,0000.0,0002.13,0000.49,0000.27
2021-12-21 19:18:00,,0822.9,5.00,0.00,24.5,23.7,00.0,33.4,26.2,06.1,0000.0,0002.12,0000.48,0000.28
2021-12-21 19:19:00,,0823.1,5.00,0.00,24.5,23.7,00.0,33.4,26.2,06.1,0000.0,0002.08,0000.49,0000.28
2021-12-21 19:20:00,,0823.1,5.00,0.00,24.5,23.7,00.0,33.4,26.2,06.1,0000.0,0002.09,0000.51,0000.28
2021-12-21 19:21:00,,0822.9,5.00,0.00,24.5,23.7,00.0,33.4,26.2,06.0,0000.0,0002.09,0000.51,0000.27
2021-12-21 19:22:00,,0822.8,5.00,0.00,24.5,23.7,00.0,33.4,26.2,06.0,0000.0,0001.01,0000.54,0000.27
2021-12-21 19:23:00,,0822.8,4.99,0.00,24.5,23.7,00.0,33.5,26.2,06.0,0000.0,0000.90,0000.53,0000.28
2021-12-21 19:24:00,,0822.9,5.00,0.00,24.5,23.7,00.0,33.5,26.2,06.0,0000.0,0000.94,0000.54,0000.28
2021-12-21 19:25:00,,0823.0,5.00,0.00,24.5,23.7,00.0,33.5,26.3,06.0,0000.0,0000.85,0000.49,0000.28
2021-12-21 19:26:00,,0823.0,4.99,0.00,24.5,23.7,00.0,33.5,26.3,05.9,0000.0,0000.78,0000.47,0000.28
2021-12-21 19:27:00,,0822.7,5.01,0.00,24.5,23.7,00.0,33.5,26.3,05.9,0000.0,0000.86,0000.44,0000.27
2021-12-21 19:28:00,,0822.8,4.99,0.00,24.5,23.8,00.0,33.5,26.3,05.8,0000.0,0001.09,0000.45,0000.27
2021-12-21 19:29:00,,0822.8,5.00,0.00,24.5,23.8,00.0,33.5,26.3,05.8,0000.0,0001.10,0000.45,0000.27
2021-12-21 19:30:00,,0822.8,5.00,0.00,24.5,23.8,00.0,33.5,26.3,05.8,0000.0,0001.06,0000.44,0000.26
2021-12-21 19:31:00,,0822.8,5.00,0.00,24.5,23.8,00.0,33.5,26.3,05.8,0000.0,0001.00,0000.41,0000.26
2021-12-21 19:32:00,,0822.8,4.99,0.00,24.6,23.8,00.0,33.5,26.3,05.8,0000.0,0001.00,0000.41,0000.26
2021-12-21 19:33:00,,0822.7,5.01,0.00,24.6,23.8,00.0,33.5,26.3,05.7,0000.0,0001.03,0000.37,0000.26
2021-12-21 19:34:00,,0822.9,4.99,0.00,24.6,23.8,00.0,33.6,26.3,05.7,0000.0,0001.57,0000.41,0000.26
2021-12-21 19:35:00,,0822.9,5.01,0.00,24.6,23.8,00.0,33.6,26.3,05.8,0000.0,0001.64,0000.41,0000.26
2021-12-21 19:36:00,,0822.8,5.00,0.00,24.6,23.8,00.0,33.6,26.4,05.7,0000.0,0002.14,0000.40,0000.26
2021-12-21 19:37:00,,0822.7,5.01,0.00,24.6,23.8,00.0,33.6,26.4,05.7,0000.0,0003.26,0000.40,0000.25
2021-12-21 19:38:00,,0822.7,4.99,0.00,24.7,23.9,00.0,33.6,26.4,05.6,0000.0,0003.74,0000.41,0000.25
2021-12-21 19:39:00,,0822.9,5.02,0.00,24.7,23.9,00.0,33.6,26.4,05.6,0000.0,0003.88,0000.41,0000.25
2021-12-21 19:40:00,,0822.8,4.99,0.00,24.7,23.9,00.0,33.6,26.4,05.5,0000.0,0003.88,0000.41,0000.25
2021-12-21 19:41:00,,0822.7,5.00,0.00,24.7,23.9,00.0,33.6,26.5,05.5,0000.0,0003.92,0000.42,0000.25
2021-12-21 19:42:00,,0822.7,4.99,0.00,24.7,23.9,00.0,33.6,26.5,05.5,0000.0,0003.98,0000.45,0000.25
2021-12-21 19:43:00,,0822.7,4.99,0.00,24.7,23.9,00.0,33.6,26.5,05.5,0000.0,0004.07,0000.48,0000.25
2021-12-21 19:44:00,,0822.7,5.01,0.00,24.7,23.9,00.0,33.6,26.5,05.5,0000.0,0004.29,0000.49,0000.25
2021-12-21 19:45:00,,0822.6,5.00,0.00,24.7,23.9,00.0,33.7,26.5,05.5,0000.0,0004.82,0000.50,0000.25
2021-12-21 19:46:00,,0822.6,5.00,0.00,24.7,24.0,00.0,33.7,26.5,05.4,0000.0,0005.76,0000.51,0000.25
2021-12-21 19:47:00,,0822.4,5.00,0.00,24.7,24.0,00.0,33.7,26.5,05.3,0000.0,0005.34,0000.54,0000.26
2021-12-21 19:48:00,,0822.4,5.01,0.00,24.7,24.0,00.0,33.7,26.5,05.3,0000.0,0005.13,0000.56,0000.26
2021-12-21 19:49:00,,0822.4,5.00,0.00,24.7,24.0,00.0,33.7,26.5,05.2,0000.0,0005.07,0000.61,0000.27
2021-12-21 19:50:00,,0822.4,4.99,0.00,24.7,24.0,00.0,33.7,26.6,05.2,0000.0,0004.95,0000.63,0000.28
2021-12-21 19:51:00,,0822.6,5.00,0.00,24.7,24.0,00.0,33.7,26.5,05.3,0000.0,0005.63,0000.70,0000.28
2021-12-21 19:52:00,,0822.5,5.01,0.00,24.7,24.1,00.0,33.7,26.5,05.3,0000.0,0005.65,0000.71,0000.29
2021-12-21 19:53:00,,0822.3,5.00,0.00,24.7,24.1,00.0,33.7,26.5,05.2,0000.0,0005.63,0000.71,0000.29
2021-12-21 19:54:00,,0822.3,4.98,0.00,24.7,24.1,00.0,33.7,26.5,05.2,0000.0,0005.69,0000.72,0000.29
2021-12-21 19:55:00,,0822.2,5.01,0.00,24.7,24.1,00.0,33.7,26.5,05.1,0000.0,0005.38,0000.76,0000.29
2021-12-21 19:56:00,,0822.2,5.00,0.00,24.7,24.1,00.0,33.7,26.5,05.1,0000.0,0004.62,0000.73,0000.29
2021-12-21 19:57:00,,0822.4,5.00,0.00,24.7,24.1,00.0,33.7,26.5,05.1,0000.0,0003.95,0000.77,0000.29
2021-12-21 19:58:00,,0822.4,4.99,0.00,24.7,24.1,00.0,33.8,26.5,05.0,0000.0,0004.05,0000.78,0000.28
2021-12-21 19:59:00,,0822.2,5.02,0.00,24.7,24.1,00.0,33.8,26.5,05.0,0000.0,0004.15,0000.84,0000.29
